This demonstration page uses our WeatherBlox Daily Observations layout. Learn more.

36.17497, -115.13722

Hourly Observations for August 3, 2018

Temp ( °F °C ) Dew Point ( °F °C ) Humidity (%) Winds ( mph kmh ) Pressure ( in mb ) Visibility ( mi km ) Precip ( " mm )
12:53 am 00:53 Clear 86 30 61 16.1 43 43 ESE 10 17 29.92 1013 10 16.0934 0 0
1:53 am 01:53 Clear 85 29.4 61 16.1 45 45 ESE 5 7 29.91 1013 10 16.0934 0 0
2:53 am 02:53 Clear 84 28.9 61 16.1 46 46 E 12 19 29.9 1013 10 16.0934 0 0
3:53 am 03:53 Clear 83 28.3 61 16.1 48 48 SSE 6 9 29.91 1013 10 16.0934 0 0
4:53 am 04:53 Clear 82 27.8 61 16.1 49 49 SE 5 7 29.91 1013 10 16.0934 0 0
5:53 am 05:53 Sunny 81 27.2 62 16.7 53 53 ESE 5 7 29.92 1013 10 16.0934 0 0
6:53 am 06:53 Sunny 82 27.8 62 16.7 51 51 ESE 3 6 29.93 1014 10 16.0934 0 0
7:53 am 07:53 Sunny 84 28.9 62 16.7 48 48 SE 8 13 29.94 1014 10 16.0934 0 0
8:53 am 08:53 Sunny 87 30.6 61 16.1 42 42 E 10 17 29.94 1014 10 16.0934 0 0
9:53 am 09:53 Sunny 89 31.7 60 15.6 38 38 ESE 12 19 29.94 1014 10 16.0934 0 0
10:53 am 10:53 Sunny 92 33.3 60 15.6 34 34 ESE 10 17 29.93 1014 10 16.0934 0 0
11:53 am 11:53 Sunny 94 34.4 60 15.6 32 32 S 12 19 29.92 1013 10 16.0934 0 0
12:53 pm 12:53 Sunny 96 35.6 61 16.1 31 31 E 5 7 29.89 1012 10 16.0934 0 0
1:53 pm 13:53 Sunny 98 36.7 60 15.6 28 28 SSE 9 15 29.86 1011 10 16.0934 0 0
2:53 pm 14:53 Sunny 101 38.3 60 15.6 26 26 undefined N/A 29.83 1010 10 16.0934 0 0
3:53 pm 15:53 Sunny 101 38.3 60 15.6 26 26 SE 7 11 29.8 1009 10 16.0934 0 0
4:53 pm 16:53 Sunny 103 39.4 59 15 24 24 SE 10 17 29.77 1008 10 16.0934 0 0
5:53 pm 17:53 Sunny 103 39.4 58 14.4 23 23 ESE 10 17 29.74 1007 10 16.0934 0 0
6:53 pm 18:53 Sunny 102 38.9 58 14.4 23 23 SE 12 19 29.75 1007 10 16.0934 0 0
7:53 pm 19:53 Clear 101 38.3 58 14.4 24 24 ESE 9 15 29.76 1008 10 16.0934 0 0
8:53 pm 20:53 Clear 100 37.8 57 13.9 24 24 SSE 10 17 29.76 1008 10 16.0934 0 0
9:53 pm 21:53 Clear 99 37.2 57 13.9 25 25 SSE 8 13 29.77 1008 10 16.0934 0 0
10:53 pm 22:53 Clear 98 36.7 57 13.9 25 25 SW 6 9 29.76 1008 10 16.0934 0 0
11:53 pm 23:53 Clear 94 34.4 59 15 31 31 Calm 29.76 1008 10 16.0934 0 0

Powered by AerisWeather